Vertical_Velocity
28 22 14 13 6 2 1 -2 -1 -1 -1 -1 -0 -1 -1 -0 0 -0 0 -1 -1 -1 -0 -1 -1 -1 0 -2 2 -2 1 -4 -0 -1 -0 -0 -3 -2 -1 -3 -3 -1 -1
65 5 1 -10 6 3 1 2 -0 -0 0 -0 1 -0 0 0 0 -2 -1 -0 -1 0 1 -0 -0 -1 -1 -2 -4 -1 -1 -1 -2 -1 -2 1 -1 -1 -0 -2 -1 1 -2
-11 -21 6 7 -6 6 1 0 0 1 2 -1 1 -1 -0 -1 1 -0 1 -0 2 2 0 -2 1 -1 2 -2 -0 -0 -1 -2 -1 -2 -1 -0 -1 -1 1 -3 -3 -2 -1
-6 12 8 9 8 -3 3 1 2 -0 -0 1 -2 -2 -1 -3 -1 -0 3 -0 0 1 -0 -1 -0 -2 -1 1 0 -2 0 -2 -2 0 0 -3 -2 -4 -1 -3 -3 -2 -3
-7 6 5 1 11 -4 0 3 2 1 0 0 -0 -1 -0 0 -1 1 3 0 2 1 -0 -2 -1 1 -1 0 3 -3 1 -0 -6 -3 -1 -1 -1 -1 -1 -1 -1 -1 -2
25 4 -6 5 -7 40 -2 1 2 1 0 -2 -2 3 -2 2 -3 0 -0 -1 1 1 1 0 -0 0 2 -0 -1 -1 -1 -2 -4 -3 -0 -1 -1 -0 -3 -3 -1 -2 -3
146 45 4 -6 8 16 6 5 3 3 0 -1 -2 -1 -1 1 -2 2 -1 1 -1 3 -1 0 -1 1 0 -0 -2 -1 -3 0 -2 0 -1 -2 -4 -1 -2 -3 -1 -1 -1
-17 56 10 3 12 -0 -2 -3 -2 -0 -1 -2 -5 4 -0 -2 1 -2 -0 -0 -0 0 -1 -1 1 -0 0 -1 -0 -1 -0 -1 8 -3 2 -1 -1 -2 -2 -2 -0 -3 -0
-27 97 1 4 5 4 -5 -3 -0 -1 0 -2 4 -3 -2 -1 -0 0 -2 -1 -0 -1 1 0 -0 -0 1 -0 1 0 0 -2 -4 7 1 3 3 -1 -2 -1 -0 -1 1
-16 20 -12 13 -12 -0 0 -4 -4 -1 4 -5 6 -2 -0 6 1 0 -1 -1 0 -2 2 0 -1 2 -1 0 3 -2 -3 -2 4 -2 -0 -3 -4 -2 -3 -6 -3 -3 -1
17 0 -1 2 7 20 -5 -3 1 -7 1 1 0 -5 0 9 -1 -2 1 2 1 1 -3 1 -0 0 1 3 0 -3 -3 -1 0 0 -1 -2 -2 -3 -2 -6 -3 -3 -0
13 15 7 13 6 2 1 11 -2 2 12 7 -3 3 10 8 3 3 0 3 2 -3 -2 1 -0 1 4 3 -1 -3 1 -2 -4 0 -3 -3 -5 -2 -2 1 -3 1 -2
3 4 2 2 1 5 2 -7 7 -7 -2 15 -1 1 -0 6 1 1 6 1 -3 -1 -2 3 1 4 -2 1 1 -0 -1 -3 -6 -4 -2 -0 2 0 -3 -4 -2 1 -9
0 -3 9 -4 1 -2 -1 6 2 1 14 2 1 -5 0 4 0 6 3 3 -4 -3 1 1 2 1 1 -0 0 1 -3 -4 6 -5 3 -2 -3 0 2 -5 -7 0 -4
1 2 3 4 1 -3 -3 9 -2 -6 -1 2 -3 3 6 -0 3 3 5 -2 -4 2 -2 4 -0 1 1 -2 0 -4 -0 -6 3 4 -4 -7 -5 -6 -2 2 1 0 -1
-0 0 0 -4 -4 -5 5 1 -0 5 -2 -0 1 0 0 2 4 5 -2 1 -1 3 -0 -0 -0 -1 -1 1 2 -1 4 -2 -7 5 -6 -5 -6 -3 -4 -10 -3 -2 -1
-6 -9 -5 -3 -1 3 -3 8 6 14 4 6 2 -3 1 3 -1 -4 1 1 -0 -1 1 1 -2 3 -5 2 1 -1 -3 -4 -3 -17 1 3 -2 -3 -4 -6 -8 -4 -4
1 -3 -6 -2 3 3 4 0 -1 2 -0 -1 -5 2 2 -6 -2 1 -1 -1 -1 -2 -1 1 -1 -1 0 5 -2 -1 -0 -4 -1 -1 -17 -15 5 3 3 -7 -6 -6 -6
-4 -7 -4 -7 -5 -1 -3 2 -9 -9 -1 -1 2 -2 -2 -1 -0 -0 0 1 -2 -0 -1 1 -3 3 -1 -3 1 -2 -1 -6 1 -3 9 -2 -17 -20 1 9 2 -1 -3
-5 -1 2 1 3 3 3 -1 0 -0 -5 2 -3 -1 -3 -4 -4 -2 0 -4 1 -1 -0 -2 -1 -3 3 -2 -6 8 -0 -1 -8 -5 -2 -5 15 -8 -23 -8 -2 4 -1
0 0 1 1 1 -5 -7 2 -4 -3 4 -1 -4 -5 -2 9 3 2 2 -1 1 -4 0 -0 -1 -1 -7 -2 2 -3 -4 11 8 1 -0 -2 -2 3 6 3 -12 -17 -2
-2 -2 -3 -2 -4 -4 -4 -3 -2 -2 -4 -4 -4 1 12 12 1 -1 -4 -1 -2 2 0 -5 -0 2 -2 -3 -8 1 -6 -16 8 -1 6 6 -3 -5 -3 7 9 -1 -12
-2 -1 -2 -3 -1 -0 -3 -4 -4 -0 -1 1 -4 -1 2 4 2 -1 -3 -1 -3 -2 2 -1 -0 3 -7 11 -8 4 -6 -4 -11 -7 -4 8 7 10 -1 -10 -7 4 4
-3 -1 -2 -1 -1 -0 -1 -2 -2 -3 -4 -3 -2 -2 -6 -2 -7 1 1 -3 4 -4 -0 -0 2 -2 -11 -5 7 5 -7 -1 -1 -12 -2 -4 -6 7 8 9 -4 -9 -9
-1 -1 -2 -3 -2 -1 -5 -3 -3 0 -1 -0 -0 -2 -1 -3 -5 4 4 -1 -3 2 -4 -2 10 17 7 -10 3 1 9 1 7 5 6 -23 -12 1 -8 1 15 8 6
-3 -4 -3 -2 -3 -2 -1 -3 -1 3 -3 -1 -1 -4 -6 -0 -4 -5 -1 0 -0 7 12 11 31 -1 12 2 -2 -0 6 2 -5 -2 1 15 11 -16 -18 -15 -12 -7 -2
Height
5807 5808 5812 5815 5818 5820 5824 5826 5829 5830 5831 5832 5832 5833 5833 5835 5836 5836 5836 5836 5837 5836 5837 5838 5838 5838 5838 5837 5836 5836 5837 5837 5837 5837 5837 5837 5836 5835 5835 5834 5833 5833 5833
5787 5806 5811 5813 5815 5817 5818 5821 5824 5825 5826 5827 5828 5829 5829 5830 5831 5833 5834 5834 5835 5834 5834 5835 5835 5834 5835 5836 5836 5834 5835 5836 5836 5836 5835 5835 5834 5833 5833 5832 5832 5831 5831
5780 5803 5807 5808 5812 5812 5814 5816 5819 5821 5821 5822 5823 5825 5825 5827 5828 5829 5830 5831 5831 5832 5832 5832 5832 5832 5833 5832 5833 5833 5833 5833 5834 5834 5833 5833 5832 5831 5830 5831 5830 5830 5829
5790 5795 5800 5802 5805 5808 5809 5811 5814 5815 5816 5818 5820 5822 5822 5823 5824 5825 5826 5826 5828 5828 5829 5829 5830 5831 5830 5830 5830 5830 5830 5831 5832 5831 5831 5831 5830 5830 5830 5829 5829 5829 5828
5783 5788 5793 5795 5799 5801 5804 5806 5808 5810 5811 5814 5817 5818 5818 5818 5820 5821 5821 5823 5824 5824 5827 5827 5827 5827 5827 5827 5828 5828 5827 5829 5829 5830 5829 5828 5828 5827 5827 5827 5827 5826 5826
5773 5782 5785 5791 5795 5790 5797 5801 5803 5805 5806 5810 5812 5813 5813 5813 5815 5816 5817 5819 5820 5821 5822 5823 5823 5823 5824 5825 5826 5826 5826 5827 5826 5826 5826 5826 5827 5828 5828 5827 5826 5825 5825
5759 5769 5780 5785 5789 5790 5792 5796 5799 5800 5802 5805 5808 5810 5809 5809 5809 5811 5812 5814 5815 5817 5818 5819 5820 5820 5821 5822 5823 5823 5823 5825 5825 5825 5825 5826 5825 5825 5825 5825 5823 5823 5822
5765 5762 5770 5777 5779 5784 5787 5792 5794 5796 5797 5798 5802 5804 5804 5805 5805 5807 5808 5809 5811 5812 5814 5815 5816 5818 5819 5819 5821 5822 5822 5823 5825 5824 5825 5824 5823 5823 5822 5821 5820 5819 5819
5759 5747 5763 5773 5777 5781 5785 5788 5789 5791 5792 5793 5795 5798 5800 5801 5801 5802 5804 5806 5807 5809 5810 5812 5814 5815 5817 5819 5820 5820 5821 5821 5822 5824 5822 5822 5821 5819 5818 5817 5815 5815 5814
5764 5760 5769 5772 5773 5778 5780 5783 5786 5785 5788 5787 5790 5794 5796 5797 5797 5800 5801 5802 5804 5805 5807 5810 5812 5814 5816 5816 5818 5819 5820 5821 5821 5820 5818 5818 5817 5815 5814 5812 5810 5809 5808
5759 5760 5765 5769 5771 5777 5776 5775 5781 5783 5783 5783 5786 5789 5790 5791 5793 5794 5796 5797 5798 5800 5805 5809 5811 5812 5814 5815 5816 5817 5818 5818 5818 5818 5816 5815 5812 5810 5809 5808 5803 5802 5799
5757 5759 5762 5764 5766 5770 5772 5770 5775 5777 5775 5779 5782 5783 5784 5785 5786 5788 5789 5792 5793 5797 5803 5807 5809 5811 5811 5813 5815 5815 5815 5815 5814 5813 5811 5810 5808 5804 5802 5799 5797 5795 5793
5755 5757 5760 5761 5763 5765 5768 5769 5770 5772 5769 5772 5776 5778 5778 5781 5782 5783 5786 5787 5789 5796 5801 5805 5807 5808 5810 5810 5811 5813 5812 5812 5810 5809 5806 5804 5799 5798 5797 5795 5793 5790 5789
5751 5754 5755 5757 5759 5761 5763 5766 5768 5767 5766 5767 5770 5772 5774 5775 5776 5780 5784 5785 5787 5794 5798 5801 5805 5805 5807 5808 5809 5809 5809 5808 5806 5802 5800 5798 5796 5794 5793 5791 5788 5785 5783
5749 5751 5751 5755 5755 5756 5757 5760 5763 5763 5763 5762 5765 5769 5770 5770 5774 5780 5782 5784 5789 5792 5796 5799 5802 5802 5804 5805 5806 5805 5803 5801 5800 5798 5796 5795 5791 5788 5788 5785 5782 5780 5778
5747 5747 5749 5750 5751 5753 5755 5758 5758 5759 5757 5759 5762 5764 5766 5771 5775 5779 5782 5786 5788 5790 5793 5797 5798 5800 5800 5801 5800 5800 5798 5797 5795 5794 5792 5789 5786 5784 5781 5778 5775 5773 5771
5741 5743 5744 5746 5749 5749 5751 5754 5754 5755 5757 5760 5759 5762 5766 5771 5776 5778 5782 5785 5786 5789 5792 5794 5796 5796 5797 5796 5795 5794 5793 5791 5789 5786 5786 5783 5781 5778 5775 5772 5769 5767 5764
5739 5739 5741 5743 5746 5747 5749 5750 5751 5755 5756 5755 5759 5764 5770 5772 5777 5778 5781 5782 5785 5788 5789 5790 5791 5792 5791 5791 5791 5790 5789 5787 5784 5780 5776 5777 5776 5772 5769 5766 5763 5759 5755
5741 5742 5743 5746 5747 5748 5751 5753 5753 5758 5759 5759 5763 5768 5770 5774 5775 5777 5778 5781 5784 5786 5787 5787 5787 5787 5787 5786 5786 5785 5783 5779 5776 5775 5772 5768 5765 5765 5763 5758 5754 5750 5745
5746 5748 5748 5751 5754 5754 5754 5753 5755 5759 5759 5763 5765 5768 5772 5773 5774 5775 5777 5779 5781 5784 5784 5784 5783 5781 5782 5781 5779 5779 5775 5771 5770 5767 5766 5762 5758 5751 5749 5748 5744 5740 5735
5751 5753 5753 5755 5756 5753 5753 5756 5758 5761 5762 5764 5766 5768 5770 5769 5773 5772 5774 5776 5778 5780 5779 5778 5777 5777 5775 5773 5771 5770 5767 5767 5764 5762 5758 5753 5749 5745 5740 5734 5730 5728 5724
5751 5752 5753 5754 5755 5756 5758 5758 5760 5762 5763 5764 5766 5769 5767 5762 5771 5770 5772 5773 5774 5773 5773 5774 5772 5771 5769 5767 5764 5763 5760 5758 5754 5751 5748 5742 5737 5733 5728 5725 5720 5713 5708
5754 5754 5756 5756 5757 5757 5758 5759 5761 5761 5762 5764 5766 5767 5768 5768 5770 5770 5770 5770 5770 5768 5770 5768 5766 5765 5763 5761 5758 5756 5752 5746 5743 5739 5732 5728 5726 5721 5716 5710 5706 5701 5696
5752 5753 5754 5755 5756 5758 5758 5759 5760 5760 5761 5763 5763 5764 5764 5766 5766 5767 5767 5766 5766 5765 5763 5762 5759 5757 5755 5751 5749 5745 5740 5735 5730 5725 5722 5719 5714 5709 5706 5700 5693 5686 5680
5751 5752 5754 5755 5756 5757 5757 5758 5757 5758 5758 5759 5759 5760 5761 5761 5762 5762 5762 5762 5761 5760 5757 5753 5750 5747 5746 5742 5738 5735 5731 5725 5720 5714 5709 5703 5701 5695 5688 5685 5681 5675 5668
5749 5750 5752 5753 5754 5755 5756 5755 5755 5756 5755 5755 5756 5756 5756 5757 5758 5756 5756 5756 5755 5751 5749 5744 5742 5741 5738 5734 5730 5725 5720 5714 5710 5703 5700 5696 5687 5679 5672 5667 5661 5655 5649